Year,Month,Day,Hour,Minute,Value (Times are PST for temperature in C)
2010,07,05,00,00,13.90
2010,07,05,00,01,13.90
2010,07,05,00,02,13.90
2010,07,05,00,03,13.90
2010,07,05,00,04,13.90
2010,07,05,00,05,13.90
2010,07,05,00,06,13.90
2010,07,05,00,07,13.90
2010,07,05,00,08,13.90
2010,07,05,00,09,13.90
2010,07,05,00,10,13.90
2010,07,05,00,11,13.90
2010,07,05,00,12,13.80
2010,07,05,00,13,13.80
2010,07,05,00,14,13.80
2010,07,05,00,15,13.80
2010,07,05,00,16,13.80
2010,07,05,00,17,13.80
2010,07,05,00,18,13.80
2010,07,05,00,19,13.80
2010,07,05,00,20,13.80
2010,07,05,00,21,13.80
2010,07,05,00,22,13.80
2010,07,05,00,23,13.80
2010,07,05,00,24,13.80
2010,07,05,00,25,13.80
2010,07,05,00,26,13.80
2010,07,05,00,27,13.80
2010,07,05,00,28,13.80
2010,07,05,00,29,13.80
2010,07,05,00,30,13.80
2010,07,05,00,31,13.80
2010,07,05,00,32,13.80
2010,07,05,00,33,13.80
2010,07,05,00,34,13.80
2010,07,05,00,35,13.80
2010,07,05,00,36,13.80
2010,07,05,00,37,13.80
2010,07,05,00,38,13.90
2010,07,05,00,39,13.80
2010,07,05,00,40,13.80
2010,07,05,00,41,13.80
2010,07,05,00,42,13.80
2010,07,05,00,43,13.80
2010,07,05,00,44,13.80
2010,07,05,00,45,13.90
2010,07,05,00,46,13.90
2010,07,05,00,47,13.90
2010,07,05,00,48,13.90
2010,07,05,00,49,13.90
2010,07,05,00,50,13.90
2010,07,05,00,51,13.90
2010,07,05,00,52,13.90
2010,07,05,00,53,13.90
2010,07,05,00,54,13.90
2010,07,05,00,55,13.90
2010,07,05,00,56,13.90
2010,07,05,00,57,13.90
2010,07,05,00,58,13.90
2010,07,05,00,59,13.90
2010,07,05,01,00,13.90
2010,07,05,01,01,13.90
2010,07,05,01,02,13.90
2010,07,05,01,03,13.90
2010,07,05,01,04,13.90
2010,07,05,01,05,13.90
2010,07,05,01,06,13.90
2010,07,05,01,07,13.80
2010,07,05,01,08,13.80
2010,07,05,01,09,13.80
2010,07,05,01,10,13.80
2010,07,05,01,11,13.80
2010,07,05,01,12,13.80
2010,07,05,01,13,13.80
2010,07,05,01,14,13.80
2010,07,05,01,15,13.80
2010,07,05,01,16,13.80
2010,07,05,01,17,13.80
2010,07,05,01,18,13.80
2010,07,05,01,19,13.80
2010,07,05,01,20,13.80
2010,07,05,01,21,13.80
2010,07,05,01,22,13.80
2010,07,05,01,23,13.80
2010,07,05,01,24,13.80
2010,07,05,01,25,13.80
2010,07,05,01,26,13.80
2010,07,05,01,27,13.80
2010,07,05,01,28,13.80
2010,07,05,01,29,13.80
2010,07,05,01,30,13.80
2010,07,05,01,31,13.80
2010,07,05,01,32,13.80
2010,07,05,01,33,13.80
2010,07,05,01,34,13.80
2010,07,05,01,35,13.70
2010,07,05,01,36,13.70
2010,07,05,01,37,13.70
2010,07,05,01,38,13.70
2010,07,05,01,39,13.70
2010,07,05,01,40,13.70
2010,07,05,01,41,13.70
2010,07,05,01,42,13.70
2010,07,05,01,43,13.70
2010,07,05,01,44,13.60
2010,07,05,01,45,13.60
2010,07,05,01,46,13.60
2010,07,05,01,47,13.60
2010,07,05,01,48,13.60
2010,07,05,01,49,13.60
2010,07,05,01,50,13.60
2010,07,05,01,51,13.50
2010,07,05,01,52,13.50
2010,07,05,01,53,13.50
2010,07,05,01,54,13.50
2010,07,05,01,55,13.50
2010,07,05,01,56,13.40
2010,07,05,01,57,13.40
2010,07,05,01,58,13.40
2010,07,05,01,59,13.40
2010,07,05,02,00,13.40
2010,07,05,02,01,13.40
2010,07,05,02,02,13.40
2010,07,05,02,03,13.40
2010,07,05,02,04,13.40
2010,07,05,02,05,13.40
2010,07,05,02,06,13.30
2010,07,05,02,07,13.30
2010,07,05,02,08,13.30
2010,07,05,02,09,13.30
2010,07,05,02,10,13.30
2010,07,05,02,11,13.30
2010,07,05,02,12,13.30
2010,07,05,02,13,13.30
2010,07,05,02,14,13.30
2010,07,05,02,15,13.30
2010,07,05,02,16,13.30
2010,07,05,02,17,13.20
2010,07,05,02,18,13.20
2010,07,05,02,19,13.20
2010,07,05,02,20,13.20
2010,07,05,02,21,13.20
2010,07,05,02,22,13.20
2010,07,05,02,23,13.20
2010,07,05,02,24,13.20
2010,07,05,02,25,13.20
2010,07,05,02,26,13.20
2010,07,05,02,27,13.10
2010,07,05,02,28,13.10
2010,07,05,02,29,13.10
2010,07,05,02,30,13.10
2010,07,05,02,31,13.10
2010,07,05,02,32,13.10
2010,07,05,02,33,13.10
2010,07,05,02,34,13.10
2010,07,05,02,35,13.10
2010,07,05,02,36,13.10
2010,07,05,02,37,13.10
2010,07,05,02,38,13.10
2010,07,05,02,39,13.10
2010,07,05,02,40,13.00
2010,07,05,02,41,13.00
2010,07,05,02,42,13.00
2010,07,05,02,43,13.00
2010,07,05,02,44,13.00
2010,07,05,02,45,13.00
2010,07,05,02,46,13.00
2010,07,05,02,47,13.00
2010,07,05,02,48,12.90
2010,07,05,02,49,12.90
2010,07,05,02,50,12.90
2010,07,05,02,51,12.90
2010,07,05,02,52,12.90
2010,07,05,02,53,12.90
2010,07,05,02,54,12.90
2010,07,05,02,55,12.90
2010,07,05,02,56,12.80
2010,07,05,02,57,12.80
2010,07,05,02,58,12.80
2010,07,05,02,59,12.80
2010,07,05,03,00,12.80
2010,07,05,03,01,12.80
2010,07,05,03,02,12.80
2010,07,05,03,03,12.80
2010,07,05,03,04,12.70
2010,07,05,03,05,12.70
2010,07,05,03,06,12.70
2010,07,05,03,07,12.70
2010,07,05,03,08,12.70
2010,07,05,03,09,12.60
2010,07,05,03,10,12.60
2010,07,05,03,11,12.60
2010,07,05,03,12,12.60
2010,07,05,03,13,12.60
2010,07,05,03,14,12.60
2010,07,05,03,15,12.60
2010,07,05,03,16,12.60
2010,07,05,03,17,12.60
2010,07,05,03,18,12.60
2010,07,05,03,19,12.60
2010,07,05,03,20,12.60
2010,07,05,03,21,12.60
2010,07,05,03,22,12.60
2010,07,05,03,23,12.60
2010,07,05,03,24,12.60
2010,07,05,03,25,12.60
2010,07,05,03,26,12.60
2010,07,05,03,27,12.60
2010,07,05,03,28,12.60
2010,07,05,03,29,12.60
2010,07,05,03,30,12.60
2010,07,05,03,31,12.60
2010,07,05,03,32,12.60
2010,07,05,03,33,12.50
2010,07,05,03,34,12.50
2010,07,05,03,35,12.50
2010,07,05,03,36,12.50
2010,07,05,03,37,12.50
2010,07,05,03,38,12.50
2010,07,05,03,39,12.50
2010,07,05,03,40,12.50
2010,07,05,03,41,12.40
2010,07,05,03,42,12.40
2010,07,05,03,43,12.40
2010,07,05,03,44,12.40
2010,07,05,03,45,12.40
2010,07,05,03,46,12.40
2010,07,05,03,47,12.30
2010,07,05,03,48,12.30
2010,07,05,03,49,12.30
2010,07,05,03,50,12.30
2010,07,05,03,51,12.30
2010,07,05,03,52,12.30
2010,07,05,03,53,12.30
2010,07,05,03,54,12.30
2010,07,05,03,55,12.30
2010,07,05,03,56,12.30
2010,07,05,03,57,12.30
2010,07,05,03,58,12.30
2010,07,05,03,59,12.30
2010,07,05,04,00,12.30
2010,07,05,04,01,12.30
2010,07,05,04,02,12.30
2010,07,05,04,03,12.30
2010,07,05,04,04,12.30
2010,07,05,04,05,12.30
2010,07,05,04,06,12.30
2010,07,05,04,07,12.30
2010,07,05,04,08,12.20
2010,07,05,04,09,12.20
2010,07,05,04,10,12.20
2010,07,05,04,11,12.20
2010,07,05,04,12,12.20
2010,07,05,04,13,12.20
2010,07,05,04,14,12.20
2010,07,05,04,15,12.20
2010,07,05,04,16,12.20
2010,07,05,04,17,12.20
2010,07,05,04,18,12.20
2010,07,05,04,19,12.20
2010,07,05,04,20,12.20
2010,07,05,04,21,12.20
2010,07,05,04,22,12.20
2010,07,05,04,23,12.20
2010,07,05,04,24,12.20
2010,07,05,04,25,12.20
2010,07,05,04,26,12.20
2010,07,05,04,27,12.20
2010,07,05,04,28,12.10
2010,07,05,04,29,12.10
2010,07,05,04,30,12.10
2010,07,05,04,31,12.10
2010,07,05,04,32,12.10
2010,07,05,04,33,12.10
2010,07,05,04,34,12.10
2010,07,05,04,35,12.10
2010,07,05,04,36,12.10
2010,07,05,04,37,12.10
2010,07,05,04,38,12.10
2010,07,05,04,39,12.10
2010,07,05,04,40,12.10
2010,07,05,04,41,12.10
2010,07,05,04,42,12.10
2010,07,05,04,43,12.10
2010,07,05,04,44,12.10
2010,07,05,04,45,12.10
2010,07,05,04,46,12.10
2010,07,05,04,47,12.10
2010,07,05,04,48,12.10
2010,07,05,04,49,12.10
2010,07,05,04,50,12.10
2010,07,05,04,51,12.10
2010,07,05,04,52,12.10
2010,07,05,04,53,12.10
2010,07,05,04,54,12.10
2010,07,05,04,55,12.10
2010,07,05,04,56,12.10
2010,07,05,04,57,12.10
2010,07,05,04,58,12.10
2010,07,05,04,59,12.10
2010,07,05,05,00,12.10
2010,07,05,05,01,12.10
2010,07,05,05,02,12.10
2010,07,05,05,03,12.10
2010,07,05,05,04,12.10
2010,07,05,05,05,12.10
2010,07,05,05,06,12.10
2010,07,05,05,07,12.10
2010,07,05,05,08,12.10
2010,07,05,05,09,12.10
2010,07,05,05,10,12.10
2010,07,05,05,11,12.10
2010,07,05,05,12,12.10
2010,07,05,05,13,12.10
2010,07,05,05,14,12.00
2010,07,05,05,15,12.00
2010,07,05,05,16,12.00
2010,07,05,05,17,12.00
2010,07,05,05,18,12.00
2010,07,05,05,19,12.00
2010,07,05,05,20,12.00
2010,07,05,05,21,12.00
2010,07,05,05,22,12.00
2010,07,05,05,23,12.00
2010,07,05,05,24,12.00
2010,07,05,05,25,12.00
2010,07,05,05,26,12.00
2010,07,05,05,27,12.00
2010,07,05,05,28,12.00
2010,07,05,05,29,12.00
2010,07,05,05,30,12.00
2010,07,05,05,31,12.00
2010,07,05,05,32,12.00
2010,07,05,05,33,11.90
2010,07,05,05,34,11.90
2010,07,05,05,35,11.90
2010,07,05,05,36,11.90
2010,07,05,05,37,11.90
2010,07,05,05,38,11.90
2010,07,05,05,39,11.90
2010,07,05,05,40,11.90
2010,07,05,05,41,11.90
2010,07,05,05,42,11.90
2010,07,05,05,43,11.90
2010,07,05,05,44,11.90
2010,07,05,05,45,11.90
2010,07,05,05,46,12.00
2010,07,05,05,47,11.90
2010,07,05,05,48,11.90
2010,07,05,05,49,11.90
2010,07,05,05,50,12.00
2010,07,05,05,51,12.00
2010,07,05,05,52,12.00
2010,07,05,05,53,12.00
2010,07,05,05,54,12.00
2010,07,05,05,55,12.00
2010,07,05,05,56,12.10
2010,07,05,05,57,12.10
2010,07,05,05,58,12.10
2010,07,05,05,59,12.10
2010,07,05,06,00,12.10
2010,07,05,06,01,12.20
2010,07,05,06,02,12.20
2010,07,05,06,03,12.20
2010,07,05,06,04,12.20
2010,07,05,06,05,12.20
2010,07,05,06,06,12.20
2010,07,05,06,07,12.20
2010,07,05,06,08,12.20
2010,07,05,06,09,12.20
2010,07,05,06,10,12.20
2010,07,05,06,11,12.20
2010,07,05,06,12,12.30
2010,07,05,06,13,12.30
2010,07,05,06,14,12.30
2010,07,05,06,15,12.30
2010,07,05,06,16,12.30
2010,07,05,06,17,12.30
2010,07,05,06,18,12.30
2010,07,05,06,19,12.30
2010,07,05,06,20,12.30
2010,07,05,06,21,12.30
2010,07,05,06,22,12.30
2010,07,05,06,23,12.30
2010,07,05,06,24,12.40
2010,07,05,06,25,12.40
2010,07,05,06,26,12.30
2010,07,05,06,27,12.40
2010,07,05,06,28,12.30
2010,07,05,06,29,12.30
2010,07,05,06,30,12.30
2010,07,05,06,31,12.30
2010,07,05,06,32,12.30
2010,07,05,06,33,12.20
2010,07,05,06,34,12.20
2010,07,05,06,35,12.20
2010,07,05,06,36,12.20
2010,07,05,06,37,12.20
2010,07,05,06,38,12.20
2010,07,05,06,39,12.20
2010,07,05,06,40,12.20
2010,07,05,06,41,12.20
2010,07,05,06,42,12.20
2010,07,05,06,43,12.20
2010,07,05,06,44,12.30
2010,07,05,06,45,12.30
2010,07,05,06,46,12.30
2010,07,05,06,47,12.30
2010,07,05,06,48,12.30
2010,07,05,06,49,12.30
2010,07,05,06,50,12.30
2010,07,05,06,51,12.30
2010,07,05,06,52,12.30
2010,07,05,06,53,12.30
2010,07,05,06,54,12.30
2010,07,05,06,55,12.30
2010,07,05,06,56,12.40
2010,07,05,06,57,12.40
2010,07,05,06,58,12.40
2010,07,05,06,59,12.40
2010,07,05,07,00,12.40
2010,07,05,07,01,12.40
2010,07,05,07,02,12.40
2010,07,05,07,03,12.40
2010,07,05,07,04,12.40
2010,07,05,07,05,12.40
2010,07,05,07,06,12.40
2010,07,05,07,07,12.40
2010,07,05,07,08,12.50
2010,07,05,07,09,12.50
2010,07,05,07,10,12.50
2010,07,05,07,11,12.60
2010,07,05,07,12,12.60
2010,07,05,07,13,12.70
2010,07,05,07,14,12.80
2010,07,05,07,15,12.90
2010,07,05,07,16,12.90
2010,07,05,07,17,13.00
2010,07,05,07,18,13.00
2010,07,05,07,19,13.10
2010,07,05,07,20,13.10
2010,07,05,07,21,13.10
2010,07,05,07,22,13.20
2010,07,05,07,23,13.10
2010,07,05,07,24,13.10
2010,07,05,07,25,13.10
2010,07,05,07,26,13.10
2010,07,05,07,27,13.10
2010,07,05,07,28,13.10
2010,07,05,07,29,13.10
2010,07,05,07,30,13.10
2010,07,05,07,31,13.10
2010,07,05,07,32,13.10
2010,07,05,07,33,13.20
2010,07,05,07,34,13.20
2010,07,05,07,35,13.20
2010,07,05,07,36,13.20
2010,07,05,07,37,13.20
2010,07,05,07,38,13.20
2010,07,05,07,39,13.30
2010,07,05,07,40,13.30
2010,07,05,07,41,13.30
2010,07,05,07,42,13.30
2010,07,05,07,43,13.30
2010,07,05,07,44,13.30
2010,07,05,07,45,13.30
2010,07,05,07,46,13.40
2010,07,05,07,47,13.40
2010,07,05,07,48,13.40
2010,07,05,07,49,13.40
2010,07,05,07,50,13.40
2010,07,05,07,51,13.40
2010,07,05,07,52,13.40
2010,07,05,07,53,13.40
2010,07,05,07,54,13.40
2010,07,05,07,55,13.50
2010,07,05,07,56,13.50
2010,07,05,07,57,13.60
2010,07,05,07,58,13.60
2010,07,05,07,59,13.60
2010,07,05,08,00,13.70
2010,07,05,08,01,13.70
2010,07,05,08,02,13.60
2010,07,05,08,03,13.60
2010,07,05,08,04,13.60
2010,07,05,08,05,13.70
2010,07,05,08,06,13.70
2010,07,05,08,07,13.70
2010,07,05,08,08,13.70
2010,07,05,08,09,13.80
2010,07,05,08,10,13.80
2010,07,05,08,11,13.80
2010,07,05,08,12,13.80
2010,07,05,08,13,13.90
2010,07,05,08,14,13.90
2010,07,05,08,15,13.90
2010,07,05,08,16,13.90
2010,07,05,08,17,13.90
2010,07,05,08,18,13.90
2010,07,05,08,19,13.90
2010,07,05,08,20,13.90
2010,07,05,08,21,14.00
2010,07,05,08,22,14.00
2010,07,05,08,23,14.10
2010,07,05,08,24,14.10
2010,07,05,08,25,14.20
2010,07,05,08,26,14.20
2010,07,05,08,27,14.30
2010,07,05,08,28,14.40
2010,07,05,08,29,14.40
2010,07,05,08,30,14.40
2010,07,05,08,31,14.30
2010,07,05,08,32,14.30
2010,07,05,08,33,14.40
2010,07,05,08,34,14.40
2010,07,05,08,35,14.50
2010,07,05,08,36,14.50
2010,07,05,08,37,14.50
2010,07,05,08,38,14.50
2010,07,05,08,39,14.50
2010,07,05,08,40,14.40
2010,07,05,08,41,14.40
2010,07,05,08,42,14.40
2010,07,05,08,43,14.40
2010,07,05,08,44,14.40
2010,07,05,08,45,14.50
2010,07,05,08,46,14.60
2010,07,05,08,47,14.60
2010,07,05,08,48,14.60
2010,07,05,08,49,14.60
2010,07,05,08,50,14.70
2010,07,05,08,51,14.60
2010,07,05,08,52,14.60
2010,07,05,08,53,14.50
2010,07,05,08,54,14.50
2010,07,05,08,55,14.40
2010,07,05,08,56,14.40
2010,07,05,08,57,14.50
2010,07,05,08,58,14.50
2010,07,05,08,59,14.60
2010,07,05,09,00,14.60
2010,07,05,09,01,14.60
2010,07,05,09,02,14.60
2010,07,05,09,03,14.60
2010,07,05,09,04,14.60
2010,07,05,09,05,14.60
2010,07,05,09,06,14.60
2010,07,05,09,07,14.60
2010,07,05,09,08,14.60
2010,07,05,09,09,14.70
2010,07,05,09,10,14.80
2010,07,05,09,11,14.80
2010,07,05,09,12,14.80
2010,07,05,09,13,14.80
2010,07,05,09,14,14.70
2010,07,05,09,15,14.60
2010,07,05,09,16,14.50
2010,07,05,09,17,14.40
2010,07,05,09,18,14.40
2010,07,05,09,19,14.30
2010,07,05,09,20,14.30
2010,07,05,09,21,14.30
2010,07,05,09,22,14.30
2010,07,05,09,23,14.30
2010,07,05,09,24,14.30
2010,07,05,09,25,14.40
2010,07,05,09,26,14.40
2010,07,05,09,27,14.40
2010,07,05,09,28,14.40
2010,07,05,09,29,14.40
2010,07,05,09,30,14.50
2010,07,05,09,31,14.60
2010,07,05,09,32,14.60
2010,07,05,09,33,14.70
2010,07,05,09,34,14.80
2010,07,05,09,35,14.80
2010,07,05,09,36,14.70
2010,07,05,09,37,14.70
2010,07,05,09,38,14.70
2010,07,05,09,39,14.70
2010,07,05,09,40,14.70
2010,07,05,09,41,14.80
2010,07,05,09,42,14.80
2010,07,05,09,43,14.80
2010,07,05,09,44,14.80
2010,07,05,09,45,14.80
2010,07,05,09,46,14.80
2010,07,05,09,47,14.90
2010,07,05,09,48,15.00
2010,07,05,09,49,15.00
2010,07,05,09,50,15.00
2010,07,05,09,51,15.00
2010,07,05,09,52,15.00
2010,07,05,09,53,15.00
2010,07,05,09,54,15.00
2010,07,05,09,55,15.00
2010,07,05,09,56,14.90
2010,07,05,09,57,14.80
2010,07,05,09,58,14.90
2010,07,05,09,59,15.00
2010,07,05,10,00,15.00
2010,07,05,10,01,15.00
2010,07,05,10,02,15.00
2010,07,05,10,03,15.10
2010,07,05,10,04,15.30
2010,07,05,10,05,15.30
2010,07,05,10,06,15.30
2010,07,05,10,07,15.30
2010,07,05,10,08,15.30
2010,07,05,10,09,15.20
2010,07,05,10,10,15.20
2010,07,05,10,11,15.00
2010,07,05,10,12,15.00
2010,07,05,10,13,15.10
2010,07,05,10,14,15.20
2010,07,05,10,15,15.30
2010,07,05,10,16,15.40
2010,07,05,10,17,15.40
2010,07,05,10,18,15.50
2010,07,05,10,19,15.50
2010,07,05,10,20,15.60
2010,07,05,10,21,15.60
2010,07,05,10,22,15.70
2010,07,05,10,23,15.80
2010,07,05,10,24,15.80
2010,07,05,10,25,15.80
2010,07,05,10,26,15.80
2010,07,05,10,27,15.80
2010,07,05,10,28,15.80
2010,07,05,10,29,15.80
2010,07,05,10,30,15.70
2010,07,05,10,31,15.70
2010,07,05,10,32,15.60
2010,07,05,10,33,15.60
2010,07,05,10,34,15.60
2010,07,05,10,35,15.60
2010,07,05,10,36,15.60
2010,07,05,10,37,15.70
2010,07,05,10,38,15.60
2010,07,05,10,39,15.60
2010,07,05,10,40,15.60
2010,07,05,10,41,15.70
2010,07,05,10,42,15.70
2010,07,05,10,43,15.80
2010,07,05,10,44,15.80
2010,07,05,10,45,15.80
2010,07,05,10,46,15.80
2010,07,05,10,47,15.80
2010,07,05,10,48,15.80
2010,07,05,10,49,15.70
2010,07,05,10,50,15.70
2010,07,05,10,51,15.60
2010,07,05,10,52,15.60
2010,07,05,10,53,15.70
2010,07,05,10,54,15.70
2010,07,05,10,55,15.70
2010,07,05,10,56,15.80
2010,07,05,10,57,15.90
2010,07,05,10,58,15.90
2010,07,05,10,59,15.90
2010,07,05,11,00,15.90
2010,07,05,11,01,15.80
2010,07,05,11,02,15.80
2010,07,05,11,03,15.80
2010,07,05,11,04,15.80
2010,07,05,11,05,15.70
2010,07,05,11,06,15.60
2010,07,05,11,07,15.70
2010,07,05,11,08,15.70
2010,07,05,11,09,15.70
2010,07,05,11,10,15.80
2010,07,05,11,11,15.90
2010,07,05,11,12,15.90
2010,07,05,11,13,15.90
2010,07,05,11,14,15.90
2010,07,05,11,15,15.90
2010,07,05,11,16,15.90
2010,07,05,11,17,15.80
2010,07,05,11,18,15.80
2010,07,05,11,19,15.80
2010,07,05,11,20,15.80
2010,07,05,11,21,15.90
2010,07,05,11,22,16.00
2010,07,05,11,23,16.10
2010,07,05,11,24,16.10
2010,07,05,11,25,16.20
2010,07,05,11,26,16.30
2010,07,05,11,27,16.30
2010,07,05,11,28,16.30
2010,07,05,11,29,16.30
2010,07,05,11,30,16.40
2010,07,05,11,31,16.40
2010,07,05,11,32,16.40
2010,07,05,11,33,16.50
2010,07,05,11,34,16.50
2010,07,05,11,35,16.60
2010,07,05,11,36,16.70
2010,07,05,11,37,16.70
2010,07,05,11,38,16.70
2010,07,05,11,39,16.50
2010,07,05,11,40,16.40
2010,07,05,11,41,16.20
2010,07,05,11,42,16.20
2010,07,05,11,43,16.20
2010,07,05,11,44,16.30
2010,07,05,11,45,16.40
2010,07,05,11,46,16.50
2010,07,05,11,47,16.60
2010,07,05,11,48,16.60
2010,07,05,11,49,16.60
2010,07,05,11,50,16.60
2010,07,05,11,51,16.60
2010,07,05,11,52,16.70
2010,07,05,11,53,16.80
2010,07,05,11,54,16.80
2010,07,05,11,55,16.80
2010,07,05,11,56,16.70
2010,07,05,11,57,16.50
2010,07,05,11,58,16.30
2010,07,05,11,59,16.10
2010,07,05,12,00,16.00
2010,07,05,12,01,16.00
2010,07,05,12,02,16.00
2010,07,05,12,03,16.20
2010,07,05,12,04,16.20
2010,07,05,12,05,16.30
2010,07,05,12,06,16.30
2010,07,05,12,07,16.40
2010,07,05,12,08,16.50
2010,07,05,12,09,16.60
2010,07,05,12,10,16.60
2010,07,05,12,11,16.60
2010,07,05,12,12,16.70
2010,07,05,12,13,16.70
2010,07,05,12,14,16.80
2010,07,05,12,15,16.90
2010,07,05,12,16,17.00
2010,07,05,12,17,17.10
2010,07,05,12,18,17.10
2010,07,05,12,19,17.20
2010,07,05,12,20,17.30
2010,07,05,12,21,17.30
2010,07,05,12,22,17.20
2010,07,05,12,23,17.20
2010,07,05,12,24,17.30
2010,07,05,12,25,17.20
2010,07,05,12,26,17.20
2010,07,05,12,27,17.20
2010,07,05,12,28,17.10
2010,07,05,12,29,17.10
2010,07,05,12,30,17.10
2010,07,05,12,31,17.10
2010,07,05,12,32,17.20
2010,07,05,12,33,17.30
2010,07,05,12,34,17.30
2010,07,05,12,35,17.30
2010,07,05,12,36,17.30
2010,07,05,12,37,17.40
2010,07,05,12,38,17.50
2010,07,05,12,39,17.50
2010,07,05,12,40,17.50
2010,07,05,12,41,17.50
2010,07,05,12,42,17.50
2010,07,05,12,43,17.60
2010,07,05,12,44,17.80
2010,07,05,12,45,17.80
2010,07,05,12,46,17.90
2010,07,05,12,47,18.00
2010,07,05,12,48,17.90
2010,07,05,12,49,17.90
2010,07,05,12,50,17.90
2010,07,05,12,51,18.00
2010,07,05,12,52,18.10
2010,07,05,12,53,18.20
2010,07,05,12,54,18.20
2010,07,05,12,55,18.30
2010,07,05,12,56,18.30
2010,07,05,12,57,18.40
2010,07,05,12,58,18.50
2010,07,05,12,59,18.60
2010,07,05,13,00,18.70
2010,07,05,13,01,18.80
2010,07,05,13,02,18.80
2010,07,05,13,03,18.70
2010,07,05,13,04,18.70
2010,07,05,13,05,18.70
2010,07,05,13,06,18.70
2010,07,05,13,07,18.70
2010,07,05,13,08,18.70
2010,07,05,13,09,18.40
2010,07,05,13,10,18.30
2010,07,05,13,11,18.30
2010,07,05,13,12,18.30
2010,07,05,13,13,18.30
2010,07,05,13,14,18.40
2010,07,05,13,15,18.40
2010,07,05,13,16,18.40
2010,07,05,13,17,18.40
2010,07,05,13,18,18.40
2010,07,05,13,19,18.50
2010,07,05,13,20,18.50
2010,07,05,13,21,18.50
2010,07,05,13,22,18.40
2010,07,05,13,23,18.40
2010,07,05,13,24,18.50
2010,07,05,13,25,18.50
2010,07,05,13,26,18.60
2010,07,05,13,27,18.70
2010,07,05,13,28,18.80
2010,07,05,13,29,18.80
2010,07,05,13,30,18.90
2010,07,05,13,31,18.90
2010,07,05,13,32,18.90
2010,07,05,13,33,18.90
2010,07,05,13,34,19.10
2010,07,05,13,35,19.20
2010,07,05,13,36,19.30
2010,07,05,13,37,19.40
2010,07,05,13,38,19.50
2010,07,05,13,39,19.70
2010,07,05,13,40,19.70
2010,07,05,13,41,19.80
2010,07,05,13,42,19.70
2010,07,05,13,43,19.50
2010,07,05,13,44,19.50
2010,07,05,13,45,19.50
2010,07,05,13,46,19.50
2010,07,05,13,47,19.40
2010,07,05,13,48,19.30
2010,07,05,13,49,19.20
2010,07,05,13,50,19.10
2010,07,05,13,51,19.10
2010,07,05,13,52,19.10
2010,07,05,13,53,19.10
2010,07,05,13,54,19.20
2010,07,05,13,55,19.30
2010,07,05,13,56,19.40
2010,07,05,13,57,19.50
2010,07,05,13,58,19.60
2010,07,05,13,59,19.70
2010,07,05,14,00,19.90
2010,07,05,14,01,20.00
2010,07,05,14,02,20.00
2010,07,05,14,03,20.00
2010,07,05,14,04,20.10
2010,07,05,14,05,20.10
2010,07,05,14,06,20.10
2010,07,05,14,07,20.20
2010,07,05,14,08,20.20
2010,07,05,14,09,20.20
2010,07,05,14,10,20.10
2010,07,05,14,11,20.10
2010,07,05,14,12,20.10
2010,07,05,14,13,19.90
2010,07,05,14,14,19.90
2010,07,05,14,15,19.90
2010,07,05,14,16,19.90
2010,07,05,14,17,19.90
2010,07,05,14,18,19.90
2010,07,05,14,19,19.80
2010,07,05,14,20,19.80
2010,07,05,14,21,19.80
2010,07,05,14,22,19.70
2010,07,05,14,23,19.80
2010,07,05,14,24,19.80
2010,07,05,14,25,19.80
2010,07,05,14,26,19.80
2010,07,05,14,27,19.80
2010,07,05,14,28,19.80
2010,07,05,14,29,19.90
2010,07,05,14,30,20.00
2010,07,05,14,31,20.00
2010,07,05,14,32,19.90
2010,07,05,14,33,19.80
2010,07,05,14,34,19.80
2010,07,05,14,35,19.80
2010,07,05,14,36,19.80
2010,07,05,14,37,19.90
2010,07,05,14,38,20.00
2010,07,05,14,39,20.00
2010,07,05,14,40,20.10
2010,07,05,14,41,20.10
2010,07,05,14,42,20.10
2010,07,05,14,43,20.10
2010,07,05,14,44,20.10
2010,07,05,14,45,20.00
2010,07,05,14,46,20.00
2010,07,05,14,47,20.00
2010,07,05,14,48,20.00
2010,07,05,14,49,20.00
2010,07,05,14,50,20.00
2010,07,05,14,51,20.00
2010,07,05,14,52,20.00
2010,07,05,14,53,20.10
2010,07,05,14,54,20.10
2010,07,05,14,55,20.10
2010,07,05,14,56,20.10
2010,07,05,14,57,20.00
2010,07,05,14,58,19.90
2010,07,05,14,59,20.00
2010,07,05,15,00,20.00
2010,07,05,15,01,20.20
2010,07,05,15,02,20.20
2010,07,05,15,03,20.20
2010,07,05,15,04,20.20
2010,07,05,15,05,20.20
2010,07,05,15,06,20.20
2010,07,05,15,07,20.00
2010,07,05,15,08,19.80
2010,07,05,15,09,19.80
2010,07,05,15,10,19.80
2010,07,05,15,11,19.80
2010,07,05,15,12,19.90
2010,07,05,15,13,19.90
2010,07,05,15,14,19.90
2010,07,05,15,15,19.90
2010,07,05,15,16,20.00
2010,07,05,15,17,20.10
2010,07,05,15,18,20.20
2010,07,05,15,19,20.30
2010,07,05,15,20,20.40
2010,07,05,15,21,20.40
2010,07,05,15,22,20.30
2010,07,05,15,23,20.30
2010,07,05,15,24,20.20
2010,07,05,15,25,20.20
2010,07,05,15,26,20.10
2010,07,05,15,27,20.10
2010,07,05,15,28,20.10
2010,07,05,15,29,20.00
2010,07,05,15,30,19.80
2010,07,05,15,31,19.70
2010,07,05,15,32,19.70
2010,07,05,15,33,19.80
2010,07,05,15,34,19.90
2010,07,05,15,35,20.00
2010,07,05,15,36,20.10
2010,07,05,15,37,20.20
2010,07,05,15,38,20.10
2010,07,05,15,39,20.10
2010,07,05,15,40,20.10
2010,07,05,15,41,20.10
2010,07,05,15,42,19.90
2010,07,05,15,43,19.90
2010,07,05,15,44,19.90
2010,07,05,15,45,19.90
2010,07,05,15,46,20.00
2010,07,05,15,47,20.00
2010,07,05,15,48,20.10
2010,07,05,15,49,20.00
2010,07,05,15,50,20.00
2010,07,05,15,51,20.00
2010,07,05,15,52,20.00
2010,07,05,15,53,19.90
2010,07,05,15,54,19.80
2010,07,05,15,55,19.80
2010,07,05,15,56,19.80
2010,07,05,15,57,19.90
2010,07,05,15,58,19.80
2010,07,05,15,59,19.80
2010,07,05,16,00,19.90
2010,07,05,16,01,19.90
2010,07,05,16,02,19.90
2010,07,05,16,03,19.90
2010,07,05,16,04,20.00
2010,07,05,16,05,20.10
2010,07,05,16,06,20.20
2010,07,05,16,07,20.10
2010,07,05,16,08,20.00
2010,07,05,16,09,20.00
2010,07,05,16,10,20.10
2010,07,05,16,11,20.00
2010,07,05,16,12,20.00
2010,07,05,16,13,20.00
2010,07,05,16,14,20.10
2010,07,05,16,15,20.10
2010,07,05,16,16,20.00
2010,07,05,16,17,19.90
2010,07,05,16,18,19.90
2010,07,05,16,19,20.00
2010,07,05,16,20,19.90
2010,07,05,16,21,19.90
2010,07,05,16,22,19.90
2010,07,05,16,23,19.90
2010,07,05,16,24,19.90
2010,07,05,16,25,19.80
2010,07,05,16,26,19.70
2010,07,05,16,27,19.70
2010,07,05,16,28,19.70
2010,07,05,16,29,19.60
2010,07,05,16,30,19.60
2010,07,05,16,31,19.70
2010,07,05,16,32,19.80
2010,07,05,16,33,19.90
2010,07,05,16,34,19.90
2010,07,05,16,35,20.00
2010,07,05,16,36,20.00
2010,07,05,16,37,20.10
2010,07,05,16,38,20.00
2010,07,05,16,39,20.10
2010,07,05,16,40,20.10
2010,07,05,16,41,20.10
2010,07,05,16,42,20.10
2010,07,05,16,43,19.80
2010,07,05,16,44,19.60
2010,07,05,16,45,19.60
2010,07,05,16,46,19.60
2010,07,05,16,47,19.60
2010,07,05,16,48,19.60
2010,07,05,16,49,19.80
2010,07,05,16,50,19.90
2010,07,05,16,51,19.90
2010,07,05,16,52,19.90
2010,07,05,16,53,19.90
2010,07,05,16,54,19.80
2010,07,05,16,55,19.70
2010,07,05,16,56,19.80
2010,07,05,16,57,19.80
2010,07,05,16,58,19.80
2010,07,05,16,59,19.70
2010,07,05,17,00,19.80
2010,07,05,17,01,19.90
2010,07,05,17,02,20.00
2010,07,05,17,03,20.00
2010,07,05,17,04,20.00
2010,07,05,17,05,20.00
2010,07,05,17,06,20.10
2010,07,05,17,07,20.10
2010,07,05,17,08,20.20
2010,07,05,17,09,20.20
2010,07,05,17,10,20.20
2010,07,05,17,11,20.30
2010,07,05,17,12,20.50
2010,07,05,17,13,20.60
2010,07,05,17,14,20.60
2010,07,05,17,15,20.60
2010,07,05,17,16,20.60
2010,07,05,17,17,20.60
2010,07,05,17,18,20.50
2010,07,05,17,19,20.50